Location: ???????
(38.3360°N, 23.6977°E)
Time: 13:26:50
(UTC+00:00)

Cosmos 1634 Rocket - Visible Passes

Search period start: 14 February 2026 00:00
Search period end: 24 February 2026 00:00
Orbit: 960 x 990 km, 82.9° (Epoch: 13 February)

Date Brightness Start Highest point End Pass type
(mag) Time Alt. Az. Time Alt. Az. Time Alt. Az.
14 Feb 4.4 18:19:46 10° N 18:24:27 50° NNE 18:24:27 50° NNE visible
14 Feb 6.5 20:07:00 10° NW 20:09:11 15° WNW 20:09:11 15° WNW visible
15 Feb 5.3 17:01:21 10° NNE 17:05:22 17° ENE 17:06:04 17° ENE visible
15 Feb 4.3 18:45:03 10° NNW 18:50:49 65° WNW 18:50:49 65° WNW visible
16 Feb 4.6 17:25:31 10° NNE 17:31:03 31° ENE 17:32:46 27° ESE visible
16 Feb 5.3 19:10:44 10° NNW 19:16:23 36° W 19:17:33 33° WSW visible
17 Feb 4.0 17:50:19 10° N 17:56:32 57° E 18:00:12 25° SSE visible
17 Feb 6.2 19:37:01 10° NW 19:41:18 20° W 19:45:05 12° WSW visible
18 Feb 5.5 16:32:26 10° NE 16:35:43 14° ENE 16:38:59 10° E visible
18 Feb 4.0 18:15:31 10° N 18:21:50 79° W 18:28:03 10° S visible
19 Feb 4.8 16:56:14 10° NNE 17:01:27 27° ENE 17:06:35 10° SE visible
19 Feb 5.0 18:41:05 10° NNW 18:46:57 43° W 18:52:45 10° SSW visible
20 Feb 4.2 17:20:54 10° N 17:26:59 48° E 17:32:58 10° SSE visible
20 Feb 6.1 19:07:09 10° NW 19:11:54 23° W 19:16:38 10° SW visible
21 Feb 3.9 17:46:00 10° N 17:52:19 88° E 17:58:33 10° S visible
21 Feb 6.8 19:34:38 10° WNW 19:36:41 12° W 19:38:44 10° W visible
22 Feb 4.8 18:11:27 10° NNW 18:17:29 51° W 18:23:27 10° SSW visible
23 Feb 4.4 16:51:31 10° N 16:57:24 41° ENE 17:03:13 10° SSE visible
23 Feb 5.9 18:37:21 10° NNW 18:42:30 27° W 18:47:35 10° SW visible
